Regional Weather Roundup
Issued by NWS Jackson, KY

Home | Current Version | Previous Version | Graphics & Text | Print | Product List | Glossary On
Versions: 1 2 3 4 5 6 7 8 9 10 11 12 13 14 15 16 17 18 19 20 21 22 23 24 25 26 27 28 29 30 31 32 33 34 35 36 37 38 39 40 41 42 43 44 45 46 47 48 49 50
000
ASUS43 KJKL 240011
RWRJKL

EAST KENTUCKY HOURLY WEATHER ROUNDUP
NATIONAL WEATHER SERVICE JACKSON KY
800 PM EDT WED JUL 23 2014

NOTE: "FAIR" INDICATES FEW OR NO CLOUDS BELOW 12,000 FEET WITH
NO SIGNIFICANT WEATHER AND/OR OBSTRUCTIONS TO VISIBILITY.

* THESE REPORTS ARE NOT UNDER NWS QUALITY CONTROL AND MAY NOT
  REPORT WEATHER SUCH AS PRECIPITATION AND FOG.

KYZ079-080-083-085-087-088-110-112-115-119-120-240100
...EASTERN KENTUCKY...

CITY           SKY/WX    TMP DP  RH WIND       PRES   REMARKS
JACKSON        LGT RAIN  71  66  84 VRB5      30.01R
6HR MIN TEMP:  70; 6HR MAX TEMP:  87; 6HR PCP:  0.06;

LONDON         MOCLDY    79  69  71 W3        29.99S
6HR MIN TEMP:  75; 6HR MAX TEMP:  89; 6HR PCP:  0.29;

SOMERSET*      CLOUDY    77  66  69 N8        29.98R
MONTICELLO*    CLOUDY    73  72  94 SW6       30.02R THUNDER FOG
6HR MIN TEMP:  77; 6HR MAX TEMP:  90; 6HR PCP:  0.01;

MIDDLESBORO*   CLEAR     76  70  81 SE3       30.00R
6HR MIN TEMP:  74; 6HR MAX TEMP:  81; 6HR PCP:  0.04;

HARLAN APT*    MOCLDY    70  68  94 MISG      30.01S
BLACK MTN*       N/A     66  63  88 S5          N/A
PIKEVILLE APT* MOCLDY    73  68  83 CALM      30.00R
BIG SANDY*     RAIN      74  73  94 N3        29.99R
6HR MIN TEMP:  74; 6HR MAX TEMP:  87;

MOREHEAD APT*    N/A     79  68  69 N7        29.99R
$$

KYZ035-036-041-042-044-050-067-078-099-240100
...CENTRAL KENTUCKY...

CITY           SKY/WX    TMP DP  RH WIND       PRES   REMARKS
MT STERLING*   MOCLDY    79  72  78 CALM      29.99S
FLEMING/MASON* PTCLDY    79  66  65 NE6       29.98R
DANVILLE*      LGT RAIN  70  68  94 CALM      30.00F
RICHMOND*      CLOUDY    75  68  78 SW13      29.98S
LEXINGTON      MOCLDY    83  69  62 W6        29.97R
6HR MIN TEMP:  79; 6HR MAX TEMP:  87; 6HR PCP: TRACE;

FRANKFORT      PTCLDY    83  67  58 NW8       29.96R
6HR MIN TEMP:  79; 6HR MAX TEMP:  87;

$$

KYZ091>093-OHZ055-061-077-WVZ005-015-034-035-042-240100
...SOUTHERN OHIO/WEST VIRGINIA...

CITY           SKY/WX    TMP DP  RH WIND       PRES   REMARKS
COVINGTON      MOCLDY    79  70  74 N7        29.97S
COLUMBUS       LGT RAIN  73  67  81 N10       29.98S
DAYTON         CLOUDY    70  66  88 N9        30.03S
WILMINGTON     MOCLDY    76  68  76 N7        29.98F
HUNTINGTON     PTCLDY    81  66  60 NW12G20   29.94R
CHARLESTON     TSTM      73  72  96 N7        29.94R FOG
PINEVILLE*     CLOUDY    77  74  90 MISG      30.04R
BECKLEY        CLOUDY    76  69  79 SW6       30.02F
BLUEFIELD      MOCLDY    76  67  73 W7        30.06F
$$

VAZ002-007-008-TNZ017-027-036-066-071-240100
...SOUTHWEST VIRGINIA/EAST TENNESSEE...

CITY           SKY/WX    TMP DP  RH WIND       PRES   REMARKS
WISE*          MOCLDY    70  61  73 SW7       30.08R
JONESVILLE*      N/A     73  72  94 CALM      30.02S
ABINGDON*      MOCLDY    76  69  77 W5        30.02F
BRISTOL        MOCLDY    78  69  73 CALM      29.99F
KNOXVILLE      MOCLDY    78  69  73 S7        29.97F
OAK RIDGE      PTCLDY    77  71  82 CALM      30.00F
CROSSVILLE     CLEAR     76  70  82 CALM      30.05R
NASHVILLE      PTSUNNY   86  71  60 NW8       29.96R HX  91
$$

...KEY TO REMARKS...
VSB - VISIBILITY IN MILES
WCI - WIND CHILL INDEX
HX  - HEAT INDEX

$$



USA.gov is the U.S. government's official web portal to all federal, state and local government web resources and services.